Location: Biberach+an+der+Riss
(48.0937°N, 9.7888°E)
Time: 03:56:43
(UTC+02:00)

ISS - Pass Details

Date: 25 September 2020
Orbit: 418 x 420 km, 51.6° (Epoch: 20 October)

Event Time Altitude Azimuth Distance (km) Brightness Sun altitude
Rises 19:24:28 0° 253° (WSW) 2,360 1.8 -3.0°
Reaches altitude 10° 19:26:34 10° 255° (WSW) 1,499 0.6 -3.3°
Maximum altitude 19:29:55 72° 341° (NNW) 445 -3.5 -3.9°
Drops below altitude 10° 19:33:18 10° 66° (ENE) 1,505 -1.5 -4.4°
Enters shadow 19:34:32 - 68° (ENE) 2,010 -0.9 -4.6°
Exits shadow 20:09:48 -73° 83° (E) 12,656 3.6 -10.5°
